| time (UTC) | temp C | wind direction | speed KPH | gust KPH | rain 1hr cm | rain 24hr cm | rain mn cm | humidity % | barometer mb |
| 20260505040819 | 22 | 187 | 3.2 | 17.7 | 0.00 | 0.00 | 0.00 | 50 | 1000.3 |
| 20260505035817 | 22 | 293 | 3.2 | 16.1 | 0.00 | 0.00 | 0.00 | 49 | 1000.3 |
| 20260505034822 | 21 | 337 | 4.8 | 22.5 | 0.00 | 0.00 | 0.00 | 50 | 1000.3 |
| 20260505033811 | 21 | 178 | 4.8 | 14.5 | 0.00 | 0.00 | 0.00 | 50 | 1000.4 |
| 20260505033316 | 21 | 159 | 4.8 | 17.7 | 0.00 | 0.00 | 0.00 | 51 | 1000.5 |
| 20260505031810 | 21 | 213 | 1.6 | 14.5 | 0.00 | 0.00 | 0.00 | 53 | 1000.6 |
| 20260505030811 | 21 | 272 | 3.2 | 11.3 | 0.00 | 0.00 | 0.00 | 53 | 1000.8 |
| 20260505025810 | 20 | 260 | 4.8 | 16.1 | 0.00 | 0.00 | 0.00 | 55 | 1000.7 |
| 20260505024810 | 20 | 252 | 3.2 | 19.3 | 0.00 | 0.00 | 0.00 | 56 | 1000.8 |
| 20260505023812 | 20 | 192 | 4.8 | 19.3 | 0.00 | 0.00 | 0.00 | 56 | 1001.0 |
| 20260505022810 | 20 | 259 | 4.8 | 17.7 | 0.00 | 0.00 | 0.00 | 57 | 1001.0 |
| 20260505021815 | 20 | 235 | 3.2 | 14.5 | 0.00 | 0.03 | 0.00 | 58 | 1001.1 |
| 20260505020818 | 20 | 210 | 4.8 | 14.5 | 0.00 | 0.03 | 0.00 | 59 | 1001.2 |
| 20260505015813 | 20 | 202 | 4.8 | 22.5 | 0.00 | 0.05 | 0.00 | 58 | 1001.2 |
| 20260505014814 | 19 | 234 | 4.8 | 16.1 | 0.00 | 0.05 | 0.00 | 60 | 1001.4 |
| 20260505013810 | 19 | 211 | 4.8 | 19.3 | 0.00 | 0.05 | 0.00 | 61 | 1001.6 |
| 20260505012813 | 19 | 280 | 4.8 | 25.7 | 0.00 | 0.05 | 0.00 | 61 | 1001.8 |
| 20260505011812 | 19 | 195 | 3.2 | 24.1 | 0.00 | 0.05 | 0.00 | 61 | 1001.7 |
| 20260505010819 | 19 | 252 | 4.8 | 19.3 | 0.00 | 0.05 | 0.00 | 61 | 1001.8 |
| 20260505005813 | 18 | 182 | 6.4 | 19.3 | 0.00 | 0.05 | 0.00 | 62 | 1001.9 |
| 20260505005312 | 18 | 305 | 4.8 | 17.7 | 0.00 | 0.05 | 0.00 | 63 | 1002.2 |
| 20260505003814 | 18 | 271 | 3.2 | 16.1 | 0.00 | 0.05 | 0.00 | 65 | 1002.3 |
| 20260505002819 | 17 | 180 | 4.8 | 22.5 | 0.00 | 0.05 | 0.00 | 64 | 1002.4 |
| 20260505001816 | 17 | 302 | 8.0 | 29.0 | 0.00 | 0.05 | 0.00 | 64 | 1002.3 |
| 20260505000814 | 17 | 244 | 6.4 | 27.4 | 0.00 | 0.05 | 0.00 | 65 | 1002.3 |
| 20260504235811 | 17 | 251 | 6.4 | 20.9 | 0.00 | 0.05 | 0.00 | 66 | 1002.4 |
| 20260504234812 | 16 | 250 | 6.4 | 16.1 | 0.00 | 0.05 | 0.00 | 67 | 1002.5 |
| 20260504233813 | 16 | 279 | 6.4 | 22.5 | 0.00 | 0.05 | 0.00 | 67 | 1002.7 |
| 20260504232802 | 16 | 269 | 3.2 | 12.9 | 0.00 | 0.05 | 0.00 | 69 | 1002.7 |
| 20260504231802 | 16 | 284 | 3.2 | 12.9 | 0.00 | 0.05 | 0.00 | 69 | 1002.8 |
| 20260504230803 | 16 | 281 | 3.2 | 12.9 | 0.00 | 0.05 | 0.00 | 69 | 1002.7 |
| 20260504225802 | 15 | 341 | 6.4 | 16.1 | 0.00 | 0.05 | 0.00 | 69 | 1002.5 |
| 20260504224803 | 15 | 294 | 4.8 | 16.1 | 0.00 | 0.05 | 0.00 | 70 | 1002.4 |
| 20260504223802 | 15 | 290 | 4.8 | 17.7 | 0.00 | 0.05 | 0.00 | 71 | 1002.4 |
| 20260504222802 | 15 | 292 | 3.2 | 14.5 | 0.00 | 0.05 | 0.00 | 73 | 1002.4 |
| 20260504221802 | 14 | 280 | 3.2 | 12.9 | 0.00 | 0.05 | 0.00 | 75 | 1002.5 |
| 20260504220800 | 14 | 290 | 4.8 | 12.9 | 0.00 | 0.05 | 0.00 | 76 | 1002.5 |
| 20260504215756 | 14 | 313 | 6.4 | 14.5 | 0.00 | 0.05 | 0.00 | 76 | 1002.3 |
| 20260504214755 | 14 | 298 | 6.4 | 12.9 | 0.00 | 0.05 | 0.00 | 76 | 1002.1 |
| 20260504213755 | 13 | 311 | 6.4 | 14.5 | 0.00 | 0.05 | 0.00 | 75 | 1002.0 |
| 20260504213257 | 13 | 313 | 4.8 | 12.9 | 0.00 | 0.05 | 0.00 | 77 | 1001.9 |
| 20260504211753 | 13 | 293 | 3.2 | 11.3 | 0.00 | 0.05 | 0.00 | 78 | 1001.8 |
| 20260504211255 | 13 | 290 | 1.6 | 9.7 | 0.00 | 0.05 | 0.00 | 82 | 1001.8 |
| 20260504205755 | 13 | 343 | 3.2 | 6.4 | 0.00 | 0.05 | 0.00 | 83 | 1001.6 |
| 20260504204754 | 12 | 301 | 3.2 | 12.9 | 0.00 | 0.05 | 0.00 | 85 | 1001.4 |
| 20260504203755 | 12 | 307 | 1.6 | 9.7 | 0.00 | 0.05 | 0.00 | 88 | 1001.2 |
| 20260504202753 | 12 | 207 | 0.0 | 3.2 | 0.00 | 0.05 | 0.00 | 89 | 1001.0 |
| 20260504201755 | 12 | 195 | 0.0 | 3.2 | 0.00 | 0.05 | 0.00 | 89 | 1000.9 |
| 20260504201254 | 13 | 248 | 0.0 | 6.4 | 0.00 | 0.05 | 0.00 | 90 | 1000.7 |
| 20260504195753 | 13 | 222 | 1.6 | 11.3 | 0.00 | 0.05 | 0.00 | 90 | 1000.6 |
| 20260504194807 | 13 | 198 | 0.0 | 4.8 | 0.00 | 0.05 | 0.00 | 90 | 1000.3 |
| 20260504194756 | 13 | 204 | 0.0 | 4.8 | 0.00 | 0.05 | 0.00 | 90 | 1000.5 |
| 20260504192754 | 13 | 198 | 0.0 | 6.4 | 0.00 | 0.05 | 0.00 | 90 | 1000.2 |
| 20260504191751 | 13 | 289 | 0.0 | 4.8 | 0.00 | 0.05 | 0.00 | 89 | 1000.2 |
| 20260504190804 | 13 | 225 | 0.0 | 4.8 | 0.00 | 0.05 | 0.00 | 88 | 1000.1 |
| 20260504190751 | 13 | 215 | 0.0 | 9.7 | 0.00 | 0.05 | 0.00 | 89 | 1000.2 |
| 20260504185252 | 13 | 211 | 0.0 | 6.4 | 0.00 | 0.05 | 0.00 | 88 | 1000.0 |
| 20260504183751 | 13 | 279 | 0.0 | 6.4 | 0.00 | 0.05 | 0.00 | 88 | 1000.0 |
| 20260504182753 | 13 | 207 | 0.0 | 3.2 | 0.00 | 0.05 | 0.00 | 88 | 999.7 |
| 20260504181753 | 14 | 294 | 0.0 | 4.8 | 0.00 | 0.05 | 0.00 | 88 | 999.7 |
| 20260504180750 | 14 | 204 | 0.0 | 3.2 | 0.00 | 0.05 | 0.00 | 87 | 999.7 |
| 20260504175752 | 14 | 204 | 0.0 | 3.2 | 0.00 | 0.05 | 0.00 | 86 | 999.6 |
| 20260504174746 | 15 | 204 | 0.0 | 3.2 | 0.00 | 0.05 | 0.00 | 86 | 999.6 |
| 20260504174300 | 15 | 204 | 0.0 | 3.2 | 0.00 | 0.05 | 0.00 | 85 | 999.6 |
| 20260504173746 | 15 | 204 | 0.0 | 1.6 | 0.00 | 0.05 | 0.00 | 85 | 999.6 |
| 20260504171746 | 15 | 204 | 0.0 | 1.6 | 0.00 | 0.05 | 0.00 | 85 | 999.7 |
| 20260504170745 | 15 | 204 | 0.0 | 3.2 | 0.00 | 0.05 | 0.00 | 84 | 999.8 |
| 20260504170248 | 15 | 204 | 0.0 | 4.8 | 0.00 | 0.05 | 0.00 | 84 | 999.8 |
| 20260504150241 | 16 | 213 | 0.0 | 4.8 | 0.00 | 0.05 | 0.00 | 88 | 999.8 |
| 20260504141236 | 17 | 214 | 1.6 | 12.9 | 0.00 | 0.05 | 0.00 | 88 | 999.6 |
| 20260504130734 | 17 | 235 | 0.0 | 4.8 | 0.00 | 0.05 | 0.05 | 86 | 999.4 |
| 20260504081722 | 18 | 0 | 0.0 | 3.2 | 0.00 | 0.05 | 0.05 | 88 | 998.4 |
| 20260504080724 | 18 | 148 | 1.6 | 4.8 | 0.00 | 0.05 | 0.05 | 88 | 998.3 |
| 20260504050714 | 19 | 88 | 1.6 | 6.4 | 0.00 | 0.05 | 0.05 | 86 | 998.1 |
| 20260504045712 | 18 | 355 | 0.0 | 4.8 | 0.00 | 0.05 | 0.05 | 88 | 998.1 |